Weather Roundup
Issued by NWS

Home | Current Version | Previous Version | Text Only | Print | Product List | Glossary On
Versions: 1 2 3 4 5 6 7 8 9 10 11 12 13 14 15 16 17 18 19 20 21 22 23 24 25 26 27 28 29 30 31 32 33 34 35 36 37 38 39 40 41 42 43 44 45 46 47 48 49 50
000
NZUS93 KARX 301710
HRRWXR

CURRENT HOURLY OBSERVATIONS ACROSS
MUCH OF THE UPPER MISSISSIPPI VALLEY
NATIONAL WEATHER SERVICE LA CROSSE WI
1200 PM CDT SAT MAY 30 2015


...SOUTHEAST MINNESOTA...


CITY           SKY/WX    TMP DP  RH WIND       PRES   REMARKS
ROCHESTER      CLOUDY    54  48  80 N12       30.20R
ROCHESTER/MAYO CLOUDY    53  47  78 N10G16    30.19R
WINONA         CLOUDY    55  48  76 N5        30.18R
AUSTIN         CLOUDY    54  46  76 N13G20    30.18R
ALBERT LEA     CLOUDY    55  48  76 N15       30.19S
DODGE CENTER   CLOUDY    54  46  76 N14       30.20R
PRESTON        CLOUDY    53  47  81 NE14G21   30.17R
OWATONNA       PTSUNNY   55  45  67 NE14      30.21R
FARIBAULT      CLOUDY    55  46  71 N12G18    30.22R
$$

...ELSEWHERE IN MINNESOTA...


CITY           SKY/WX    TMP DP  RH WIND       PRES   REMARKS
MINNEAPOLIS    PTSUNNY   58  42  55 N13       30.24R
INTNL FALLS    SUNNY     44  27  51 VRB6G17   30.36S
DULUTH         MOSUNNY   51  33  50 N12       30.27S
RED WING       CLOUDY    55  45  67 NE9       30.20S
REDWOOD FALLS  MOSUNNY   54  41  61 N14G20    30.28R
MANKATO        MOSUNNY   55  39  54 N13G22    30.23R
WORTHINGTON    MOSUNNY   54  39  58 N15G22    30.26R
FAIRMONT       PTSUNNY   55  41  58 N17G24    30.22S
$$

...SOUTHWEST WISCONSIN...


CITY           SKY/WX    TMP DP  RH WIND       PRES   REMARKS
LA CROSSE      CLOUDY    58  51  78 N13       30.15R
PRAIRIE DU CHI CLOUDY    58  51  78 N9        30.11R
BOSCOBEL       CLOUDY    58  53  84 NE10G20   30.11R
LONE ROCK      LGT RAIN  56  51  84 NE15      30.11S
PLATTEVILLE    CLOUDY    58  55  91 NE17G25   30.07R
FORT MC COY    CLOUDY    54  53  95 N8        30.16R FOG
CAMP DOUGLAS   LGT RAIN  55  55 100 NE5       30.14R
VIROQUA        CLOUDY    55  55 100 NE13      30.13R
WIS DELLS      DRIZZLE   52  49  92 NE13G22   30.13R
$$

...ELSEWHERE IN WISCONSIN...


CITY           SKY/WX    TMP DP  RH WIND       PRES   REMARKS
MILWAUKEE      LGT RAIN  48  45  89 N23G33    30.10R FOG
MADISON        DRIZZLE   54  50  86 NE14G24   30.10R
GREEN BAY      LGT RAIN  52  48  86 N12       30.17R FOG
EAU CLAIRE     CLOUDY    55  45  68 N9        30.20R
BLACK RVR FLS  CLOUDY    57  50  77 NE7       30.16R
MEDFORD        CLOUDY    55  47  75 N14G21    30.18R
WAUSAU         CLOUDY    56  45  66 NE10      30.16R
WIS RAPIDS     CLOUDY    55  49  80 NE10      30.17R
MARSHFIELD     CLOUDY    57  48  72 NE12      30.16R
RICE LAKE      CLOUDY    52  42  68 N14       30.25R
$$

...NORTHEAST IOWA...


CITY           SKY/WX    TMP DP  RH WIND       PRES   REMARKS
DECORAH        CLOUDY    55  52  88 NE9G18    30.12R
MASON CITY     CLOUDY    58  50  75 N15       30.18R
CHARLES CITY   CLOUDY    57  54  88 N18G26    30.15R
OELWEIN        CLOUDY    57  54  88 NE23      30.10S
$$

...ELSEWHERE IN IOWA...


CITY           SKY/WX    TMP DP  RH WIND       PRES   REMARKS
DES MOINES     DRIZZLE   58  52  80 N14       30.12R
IOWA CITY      CLOUDY    64  59  83 N17       30.04R
FORT DODGE     CLOUDY    55  46  71 N10G18    30.18S
$$

...NORTHERN ILLINOIS...


CITY           SKY/WX    TMP DP  RH WIND       PRES   REMARKS
CHICAGO-OHARE  LGT RAIN  52  51  97 N15       30.03R
CHICAGO-MIDWAY CLOUDY    59  57  93 NE10      30.01R
MOLINE         CLOUDY    71  65  81 CALM      29.98S
ROCKFORD       LGT RAIN  68  65  90 S5        30.01R FOG
PEORIA         LGT RAIN  69  65  86 N3        29.99S FOG
$$

NOTE: "FAIR" INDICATES FEW OR NO CLOUDS BELOW 12,000 FEET WITH NO
SIGNIFICANT WEATHER AND/OR OBSTRUCTIONS TO VISIBILITY. WIND
SPEEDS ARE IN MILES-PER-HOUR.



USA.gov is the U.S. government's official web portal to all federal, state and local government web resources and services.